Location: Baia Mare
(47.6567°N, 23.5850°E)
Time: 16:30:01
(UTC+03:00)

ISS - Pass Details

Date: 19 May 2018
Orbit: 402 x 407 km, 51.6° (Epoch: 27 May)

Event Time Altitude Azimuth Distance (km) Brightness Sun altitude
Exits shadow 01:57:21 34° 312° (NW) 687 -2.5 -22.2°
Maximum altitude 01:58:11 42° 352° (N) 589 -2.6 -22.2°
Drops below altitude 10° 02:01:19 10° 65° (ENE) 1,459 -0.6 -22.1°
Sets 02:03:28 0° 73° (ENE) 2,319 0.4 -22.0°
